| time (UTC) | temp C | wind direction | speed KPH | gust KPH | rain 1hr cm | rain 24hr cm | rain mn cm | humidity % | barometer mb |
| 20260508023702 | 7 | 329 | 3.2 | 6.4 | 0.00 | 0.00 | 0.00 | 80 | 1008.3 |
| 20260508023201 | 7 | 312 | 3.2 | 8.0 | 0.00 | 0.00 | 0.00 | 80 | 1008.3 |
| 20260508022700 | 7 | 330 | 3.2 | 6.4 | 0.00 | 0.00 | 0.00 | 80 | 1008.3 |
| 20260508022159 | 7 | 330 | 4.8 | 8.0 | 0.00 | 0.00 | 0.00 | 80 | 1008.3 |
| 20260508021658 | 7 | 270 | 4.8 | 9.7 | 0.00 | 0.00 | 0.00 | 79 | 1008.3 |
| 20260508021158 | 7 | 312 | 4.8 | 6.4 | 0.00 | 0.00 | 0.00 | 79 | 1008.3 |
| 20260508020656 | 7 | 312 | 4.8 | 6.4 | 0.00 | 0.00 | 0.00 | 79 | 1008.3 |
| 20260508020155 | 7 | 58 | 4.8 | 11.3 | 0.00 | 0.00 | 0.00 | 79 | 1008.3 |
| 20260508015654 | 7 | 356 | 3.2 | 6.4 | 0.00 | 0.00 | 0.00 | 81 | 1008.2 |
| 20260508015153 | 7 | 348 | 4.8 | 8.0 | 0.00 | 0.00 | 0.00 | 81 | 1008.2 |
| 20260508014652 | 7 | 63 | 4.8 | 9.7 | 0.00 | 0.00 | 0.00 | 81 | 1008.2 |
| 20260508014151 | 7 | 0 | 4.8 | 8.0 | 0.00 | 0.00 | 0.00 | 82 | 1008.2 |
| 20260508013650 | 7 | 357 | 8.0 | 14.5 | 0.00 | 0.00 | 0.00 | 82 | 1008.2 |
| 20260508013149 | 7 | 14 | 8.0 | 12.9 | 0.00 | 0.00 | 0.00 | 81 | 1008.1 |
| 20260508012649 | 7 | 340 | 6.4 | 12.9 | 0.00 | 0.00 | 0.00 | 81 | 1008.1 |
| 20260508012147 | 7 | 24 | 6.4 | 8.0 | 0.00 | 0.00 | 0.00 | 80 | 1008.1 |
| 20260508011646 | 7 | 323 | 6.4 | 9.7 | 0.00 | 0.00 | 0.00 | 80 | 1008.1 |
| 20260508011146 | 7 | 336 | 6.4 | 8.0 | 0.00 | 0.00 | 0.00 | 79 | 1008.1 |
| 20260508010644 | 7 | 327 | 4.8 | 8.0 | 0.00 | 0.00 | 0.00 | 79 | 1008.2 |
| 20260508010144 | 8 | 342 | 4.8 | 6.4 | 0.00 | 0.00 | 0.00 | 79 | 1008.2 |
| 20260508005643 | 8 | 330 | 6.4 | 14.5 | 0.00 | 0.00 | 0.00 | 78 | 1008.1 |
| 20260508005142 | 8 | 330 | 4.8 | 12.9 | 0.00 | 0.00 | 0.00 | 79 | 1008.0 |
| 20260508004641 | 8 | 12 | 4.8 | 6.4 | 0.00 | 0.00 | 0.00 | 78 | 1008.0 |
| 20260508004140 | 8 | 336 | 4.8 | 9.7 | 0.00 | 0.00 | 0.00 | 79 | 1008.0 |
| 20260508003639 | 8 | 340 | 3.2 | 6.4 | 0.00 | 0.00 | 0.00 | 79 | 1008.0 |
| 20260508003138 | 8 | 336 | 3.2 | 6.4 | 0.00 | 0.00 | 0.00 | 80 | 1008.0 |
| 20260508002638 | 8 | 30 | 3.2 | 6.4 | 0.00 | 0.00 | 0.00 | 80 | 1008.0 |
| 20260508002136 | 8 | 324 | 4.8 | 6.4 | 0.00 | 0.00 | 0.00 | 80 | 1007.9 |
| 20260508001635 | 8 | 48 | 6.4 | 9.7 | 0.00 | 0.00 | 0.00 | 80 | 1008.0 |
| 20260508001135 | 8 | 36 | 4.8 | 9.7 | 0.00 | 0.00 | 0.00 | 81 | 1008.0 |
| 20260508000634 | 8 | 348 | 6.4 | 8.0 | 0.00 | 0.00 | 0.00 | 82 | 1008.0 |
| 20260508000133 | 8 | 121 | 3.2 | 6.4 | 0.00 | 0.00 | 0.00 | 84 | 1008.0 |
| 20260507235632 | 8 | 356 | 4.8 | 8.0 | 0.00 | 0.00 | 0.00 | 85 | 1008.1 |
| 20260507235131 | 8 | 6 | 3.2 | 8.0 | 0.00 | 0.00 | 0.00 | 85 | 1008.1 |
| 20260507234630 | 8 | 36 | 3.2 | 6.4 | 0.00 | 0.00 | 0.00 | 85 | 1008.1 |
| 20260507234129 | 8 | 340 | 4.8 | 6.4 | 0.00 | 0.00 | 0.00 | 85 | 1008.1 |
| 20260507233628 | 8 | 77 | 0.0 | 0.0 | 0.00 | 0.00 | 0.00 | 85 | 1008.1 |
| 20260507233127 | 8 | 77 | 4.8 | 6.4 | 0.00 | 0.00 | 0.00 | 85 | 1008.1 |
| 20260507232626 | 8 | 334 | 6.4 | 8.0 | 0.00 | 0.00 | 0.00 | 85 | 1008.1 |
| 20260507232126 | 8 | 353 | 6.4 | 8.0 | 0.00 | 0.00 | 0.00 | 85 | 1008.2 |
| 20260507231124 | 8 | 317 | 3.2 | 3.2 | 0.00 | 0.00 | 0.00 | 85 | 1008.3 |
| 20260507230623 | 8 | 342 | 4.8 | 6.4 | 0.00 | 0.00 | 0.00 | 85 | 1008.2 |
| 20260507230122 | 8 | 330 | 4.8 | 6.4 | 0.00 | 0.00 | 0.00 | 85 | 1008.1 |
| 20260507225621 | 8 | 2 | 4.8 | 8.0 | 0.00 | 0.00 | 0.00 | 84 | 1008.1 |
| 20260507225120 | 8 | 347 | 6.4 | 9.7 | 0.00 | 0.00 | 0.00 | 84 | 1008.0 |
| 20260507224619 | 8 | 14 | 8.0 | 14.5 | 0.00 | 0.00 | 0.00 | 84 | 1008.0 |
| 20260507224118 | 8 | 13 | 4.8 | 8.0 | 0.00 | 0.00 | 0.00 | 85 | 1008.0 |
| 20260507223617 | 8 | 0 | 4.8 | 6.4 | 0.00 | 0.00 | 0.00 | 85 | 1008.1 |
| 20260507223116 | 8 | 342 | 3.2 | 6.4 | 0.00 | 0.00 | 0.00 | 85 | 1008.1 |
| 20260507222615 | 8 | 6 | 6.4 | 9.7 | 0.00 | 0.00 | 0.00 | 85 | 1008.0 |
| 20260507222114 | 8 | 348 | 4.8 | 6.4 | 0.00 | 0.00 | 0.00 | 85 | 1008.1 |
| 20260507221613 | 8 | 21 | 4.8 | 6.4 | 0.00 | 0.00 | 0.00 | 85 | 1008.2 |
| 20260507221112 | 8 | 340 | 4.8 | 6.4 | 0.00 | 0.00 | 0.00 | 85 | 1008.2 |
| 20260507220611 | 8 | 2 | 3.2 | 4.8 | 0.00 | 0.00 | 0.00 | 85 | 1008.1 |
| 20260507220110 | 8 | 0 | 4.8 | 6.4 | 0.00 | 0.00 | 0.00 | 85 | 1008.1 |
| 20260507215609 | 8 | 329 | 4.8 | 8.0 | 0.00 | 0.00 | 0.00 | 85 | 1008.1 |
| 20260507215108 | 8 | 346 | 4.8 | 8.0 | 0.00 | 0.00 | 0.00 | 85 | 1008.1 |
| 20260507214607 | 8 | 301 | 4.8 | 8.0 | 0.00 | 0.00 | 0.00 | 85 | 1008.0 |
| 20260507214106 | 8 | 336 | 4.8 | 6.4 | 0.00 | 0.00 | 0.00 | 85 | 1008.0 |
| 20260507213605 | 8 | 342 | 6.4 | 8.0 | 0.00 | 0.00 | 0.00 | 84 | 1007.9 |
| 20260507213104 | 8 | 312 | 4.8 | 8.0 | 0.00 | 0.00 | 0.00 | 85 | 1007.9 |
| 20260507212603 | 8 | 348 | 3.2 | 4.8 | 0.00 | 0.00 | 0.00 | 84 | 1007.8 |
| 20260507212102 | 8 | 342 | 6.4 | 8.0 | 0.00 | 0.00 | 0.00 | 84 | 1007.8 |
| 20260507211601 | 8 | 342 | 4.8 | 8.0 | 0.00 | 0.00 | 0.00 | 85 | 1007.7 |
| 20260507211100 | 8 | 42 | 4.8 | 8.0 | 0.00 | 0.00 | 0.00 | 84 | 1007.6 |
| 20260507210559 | 8 | 322 | 6.4 | 8.0 | 0.00 | 0.00 | 0.00 | 85 | 1007.6 |
| 20260507210058 | 8 | 6 | 3.2 | 6.4 | 0.00 | 0.00 | 0.00 | 85 | 1007.5 |
| 20260507205557 | 8 | 324 | 6.4 | 8.0 | 0.00 | 0.00 | 0.00 | 84 | 1007.5 |
| 20260507205056 | 8 | 5 | 3.2 | 6.4 | 0.00 | 0.00 | 0.00 | 84 | 1007.5 |
| 20260507204555 | 8 | 347 | 6.4 | 8.0 | 0.00 | 0.00 | 0.00 | 84 | 1007.4 |
| 20260507204054 | 8 | 335 | 4.8 | 8.0 | 0.00 | 0.00 | 0.00 | 84 | 1007.4 |
| 20260507203553 | 8 | 335 | 4.8 | 6.4 | 0.00 | 0.00 | 0.00 | 84 | 1007.3 |
| 20260507203052 | 8 | 333 | 6.4 | 8.0 | 0.00 | 0.00 | 0.00 | 84 | 1007.2 |
| 20260507202551 | 8 | 15 | 4.8 | 6.4 | 0.00 | 0.00 | 0.00 | 84 | 1007.2 |
| 20260507202050 | 8 | 312 | 4.8 | 6.4 | 0.00 | 0.00 | 0.00 | 84 | 1007.1 |
| 20260507201549 | 8 | 316 | 6.4 | 9.7 | 0.00 | 0.00 | 0.00 | 84 | 1007.1 |
| 20260507201048 | 8 | 342 | 4.8 | 8.0 | 0.00 | 0.00 | 0.00 | 84 | 1007.1 |
| 20260507200547 | 8 | 318 | 4.8 | 6.4 | 0.00 | 0.00 | 0.00 | 84 | 1007.1 |
| 20260507200046 | 8 | 0 | 4.8 | 9.7 | 0.00 | 0.00 | 0.00 | 83 | 1007.1 |
| 20260507195546 | 8 | 270 | 4.8 | 4.8 | 0.00 | 0.00 | 0.00 | 83 | 1007.1 |
| 20260507195045 | 8 | 318 | 3.2 | 6.4 | 0.00 | 0.00 | 0.00 | 82 | 1007.1 |
| 20260507194543 | 9 | 84 | 3.2 | 6.4 | 0.00 | 0.00 | 0.00 | 82 | 1007.0 |
| 20260507194042 | 9 | 324 | 3.2 | 6.4 | 0.00 | 0.00 | 0.00 | 81 | 1006.9 |
| 20260507193541 | 9 | 317 | 4.8 | 8.0 | 0.00 | 0.00 | 0.00 | 81 | 1006.9 |
| 20260507193041 | 9 | 348 | 1.6 | 4.8 | 0.00 | 0.00 | 0.00 | 81 | 1006.9 |
| 20260507192539 | 9 | 32 | 1.6 | 6.4 | 0.00 | 0.00 | 0.00 | 80 | 1006.8 |
| 20260507192039 | 9 | 44 | 6.4 | 9.7 | 0.00 | 0.00 | 0.00 | 80 | 1006.7 |
| 20260507191538 | 9 | 15 | 3.2 | 6.4 | 0.00 | 0.00 | 0.00 | 81 | 1006.7 |
| 20260507191036 | 9 | 44 | 3.2 | 6.4 | 0.00 | 0.00 | 0.00 | 81 | 1006.7 |
| 20260507190536 | 9 | 348 | 0.0 | 0.0 | 0.00 | 0.00 | 0.00 | 81 | 1006.7 |
| 20260507190035 | 9 | 348 | 4.8 | 8.0 | 0.00 | 0.00 | 0.00 | 81 | 1006.7 |
| 20260507185534 | 9 | 58 | 4.8 | 6.4 | 0.00 | 0.00 | 0.00 | 80 | 1006.6 |
| 20260507185033 | 9 | 12 | 3.2 | 6.4 | 0.00 | 0.00 | 0.00 | 81 | 1006.7 |
| 20260507184532 | 9 | 77 | 3.2 | 9.7 | 0.00 | 0.00 | 0.00 | 81 | 1006.6 |
| 20260507184031 | 9 | 54 | 4.8 | 9.7 | 0.00 | 0.00 | 0.00 | 81 | 1006.4 |
| 20260507183530 | 9 | 33 | 6.4 | 9.7 | 0.00 | 0.00 | 0.00 | 81 | 1006.4 |
| 20260507183029 | 9 | 69 | 3.2 | 4.8 | 0.00 | 0.00 | 0.00 | 81 | 1006.4 |
| 20260507182528 | 9 | 301 | 4.8 | 6.4 | 0.00 | 0.00 | 0.00 | 81 | 1006.3 |
| 20260507182027 | 9 | 336 | 6.4 | 8.0 | 0.00 | 0.00 | 0.00 | 81 | 1006.2 |
| 20260507181526 | 8 | 352 | 4.8 | 9.7 | 0.00 | 0.00 | 0.00 | 82 | 1006.3 |
| 20260507181025 | 8 | 18 | 6.4 | 9.7 | 0.00 | 0.00 | 0.00 | 81 | 1006.3 |
| 20260507180524 | 9 | 312 | 3.2 | 6.4 | 0.00 | 0.00 | 0.00 | 82 | 1006.3 |
| 20260507180023 | 8 | 34 | 4.8 | 8.0 | 0.00 | 0.00 | 0.00 | 82 | 1006.2 |
| 20260507175522 | 9 | 312 | 9.7 | 14.5 | 0.00 | 0.00 | 0.00 | 82 | 1006.1 |
| 20260507175021 | 9 | 335 | 6.4 | 6.4 | 0.00 | 0.00 | 0.00 | 82 | 1005.9 |
| 20260507174520 | 9 | 336 | 4.8 | 6.4 | 0.00 | 0.00 | 0.00 | 82 | 1005.8 |
| 20260507174019 | 9 | 336 | 8.0 | 8.0 | 0.00 | 0.00 | 0.00 | 81 | 1005.7 |
| 20260507173518 | 9 | 330 | 6.4 | 9.7 | 0.00 | 0.00 | 0.00 | 81 | 1005.6 |
| 20260507173017 | 9 | 12 | 6.4 | 11.3 | 0.00 | 0.00 | 0.00 | 81 | 1005.6 |
| 20260507172516 | 9 | 348 | 4.8 | 8.0 | 0.00 | 0.00 | 0.00 | 80 | 1005.6 |
| 20260507172015 | 9 | 342 | 4.8 | 9.7 | 0.00 | 0.00 | 0.00 | 81 | 1005.5 |
| 20260507171513 | 9 | 24 | 6.4 | 9.7 | 0.00 | 0.00 | 0.00 | 81 | 1005.4 |
| 20260507171013 | 9 | 12 | 6.4 | 9.7 | 0.00 | 0.00 | 0.00 | 81 | 1005.4 |
| 20260507170512 | 9 | 318 | 6.4 | 9.7 | 0.00 | 0.00 | 0.00 | 80 | 1005.4 |
| 20260507170011 | 9 | 2 | 6.4 | 12.9 | 0.00 | 0.00 | 0.00 | 80 | 1005.4 |
| 20260507165510 | 9 | 327 | 6.4 | 9.7 | 0.00 | 0.00 | 0.00 | 80 | 1005.4 |
| 20260507165009 | 9 | 318 | 8.0 | 12.9 | 0.00 | 0.00 | 0.00 | 80 | 1005.3 |
| 20260507164508 | 9 | 48 | 6.4 | 9.7 | 0.00 | 0.00 | 0.00 | 80 | 1005.3 |
| 20260507164007 | 9 | 353 | 8.0 | 9.7 | 0.00 | 0.00 | 0.00 | 80 | 1005.2 |
| 20260507163507 | 9 | 342 | 6.4 | 9.7 | 0.00 | 0.00 | 0.00 | 79 | 1005.2 |
| 20260507163005 | 9 | 329 | 8.0 | 12.9 | 0.00 | 0.00 | 0.00 | 79 | 1005.2 |
| 20260507162504 | 9 | 8 | 4.8 | 6.4 | 0.00 | 0.00 | 0.00 | 80 | 1005.2 |
| 20260507162003 | 9 | 336 | 0.0 | 0.0 | 0.00 | 0.00 | 0.00 | 80 | 1005.2 |
| 20260507161502 | 9 | 336 | 6.4 | 12.9 | 0.00 | 0.00 | 0.00 | 80 | 1005.2 |
| 20260507161001 | 8 | 336 | 9.7 | 12.9 | 0.00 | 0.00 | 0.00 | 81 | 1005.2 |
| 20260507160500 | 8 | 348 | 8.0 | 11.3 | 0.00 | 0.00 | 0.00 | 80 | 1005.2 |
| 20260507155959 | 9 | 27 | 6.4 | 9.7 | 0.00 | 0.00 | 0.00 | 81 | 1005.3 |
| 20260507155458 | 8 | 330 | 4.8 | 9.7 | 0.00 | 0.00 | 0.00 | 81 | 1005.4 |
| 20260507154958 | 9 | 347 | 6.4 | 8.0 | 0.00 | 0.00 | 0.00 | 81 | 1005.4 |
| 20260507154456 | 9 | 288 | 9.7 | 9.7 | 0.00 | 0.00 | 0.00 | 81 | 1005.4 |
| 20260507153955 | 9 | 323 | 6.4 | 6.4 | 0.00 | 0.00 | 0.00 | 80 | 1005.3 |
| 20260507153454 | 9 | 348 | 4.8 | 4.8 | 0.00 | 0.00 | 0.00 | 80 | 1005.3 |
| 20260507152953 | 9 | 60 | 0.0 | 0.0 | 0.00 | 0.00 | 0.00 | 80 | 1005.3 |
| 20260507152452 | 9 | 60 | 8.0 | 8.0 | 0.00 | 0.00 | 0.00 | 80 | 1005.2 |
| 20260507151951 | 9 | 1 | 0.0 | 0.0 | 0.00 | 0.00 | 0.00 | 80 | 1005.2 |
| 20260507151451 | 9 | 1 | 8.0 | 11.3 | 0.00 | 0.00 | 0.00 | 80 | 1005.2 |
| 20260507150950 | 9 | 330 | 6.4 | 9.7 | 0.00 | 0.00 | 0.00 | 78 | 1005.2 |
| 20260507150449 | 9 | 342 | 4.8 | 9.7 | 0.00 | 0.00 | 0.00 | 80 | 1005.2 |
| 20260507145948 | 9 | 33 | 4.8 | 9.7 | 0.00 | 0.00 | 0.00 | 81 | 1005.2 |
| 20260507145448 | 9 | 323 | 6.4 | 11.3 | 0.00 | 0.00 | 0.00 | 81 | 1005.2 |
| 20260507144946 | 8 | 330 | 6.4 | 9.7 | 0.00 | 0.00 | 0.00 | 81 | 1005.2 |
| 20260507144445 | 9 | 27 | 4.8 | 8.0 | 0.00 | 0.00 | 0.00 | 82 | 1005.3 |
| 20260507143944 | 8 | 323 | 4.8 | 8.0 | 0.00 | 0.00 | 0.00 | 82 | 1005.3 |
| 20260507143443 | 8 | 12 | 4.8 | 6.4 | 0.00 | 0.00 | 0.00 | 82 | 1005.3 |
| 20260507142943 | 8 | 5 | 6.4 | 9.7 | 0.00 | 0.00 | 0.00 | 82 | 1005.4 |
| 20260507142442 | 9 | 12 | 8.0 | 12.9 | 0.00 | 0.00 | 0.00 | 81 | 1005.4 |
| 20260507141439 | 9 | 348 | 4.8 | 6.4 | 0.00 | 0.00 | 0.00 | 81 | 1005.3 |
| 20260507140939 | 8 | 26 | 6.4 | 8.0 | 0.00 | 0.00 | 0.00 | 82 | 1005.3 |
| 20260507140438 | 8 | 66 | 6.4 | 9.7 | 0.00 | 0.00 | 0.00 | 83 | 1005.2 |
| 20260507135936 | 8 | 357 | 8.0 | 14.5 | 0.00 | 0.00 | 0.00 | 82 | 1005.1 |
| 20260507135436 | 8 | 5 | 8.0 | 12.9 | 0.00 | 0.00 | 0.00 | 84 | 1005.1 |
| 20260507134934 | 8 | 348 | 8.0 | 12.9 | 0.00 | 0.00 | 0.00 | 84 | 1005.0 |
| 20260507134433 | 8 | 318 | 6.4 | 9.7 | 0.00 | 0.00 | 0.00 | 85 | 1005.0 |
| 20260507133932 | 8 | 12 | 9.7 | 16.1 | 0.00 | 0.00 | 0.00 | 85 | 1005.0 |
| 20260507133432 | 8 | 329 | 8.0 | 12.9 | 0.00 | 0.00 | 0.00 | 85 | 1004.9 |
| 20260507132930 | 8 | 306 | 8.0 | 14.5 | 0.00 | 0.00 | 0.00 | 86 | 1005.0 |
| 20260507132430 | 8 | 318 | 8.0 | 12.9 | 0.00 | 0.00 | 0.00 | 85 | 1005.0 |
| 20260507131929 | 8 | 20 | 8.0 | 14.5 | 0.00 | 0.00 | 0.00 | 85 | 1004.9 |
| 20260507131427 | 8 | 69 | 9.7 | 14.5 | 0.00 | 0.00 | 0.00 | 85 | 1004.9 |
| 20260507130927 | 8 | 2 | 6.4 | 8.0 | 0.00 | 0.00 | 0.00 | 84 | 1004.9 |
| 20260507130426 | 8 | 12 | 8.0 | 12.9 | 0.00 | 0.00 | 0.00 | 84 | 1004.9 |
| 20260507125925 | 8 | 336 | 0.0 | 0.0 | 0.00 | 0.00 | 0.00 | 85 | 1004.9 |
| 20260507125424 | 8 | 336 | 6.4 | 14.5 | 0.00 | 0.00 | 0.00 | 85 | 1004.9 |
| 20260507124922 | 8 | 342 | 6.4 | 8.0 | 0.00 | 0.00 | 0.00 | 85 | 1004.9 |
| 20260507124422 | 8 | 18 | 6.4 | 9.7 | 0.00 | 0.00 | 0.00 | 85 | 1004.8 |
| 20260507123921 | 8 | 26 | 8.0 | 9.7 | 0.00 | 0.00 | 0.00 | 85 | 1004.7 |
| 20260507123420 | 8 | 351 | 8.0 | 12.9 | 0.00 | 0.00 | 0.00 | 85 | 1004.7 |
| 20260507122919 | 8 | 312 | 6.4 | 9.7 | 0.00 | 0.00 | 0.00 | 87 | 1004.7 |
| 20260507122418 | 8 | 21 | 6.4 | 6.4 | 0.00 | 0.00 | 0.00 | 86 | 1004.7 |
| 20260507121917 | 8 | 282 | 6.4 | 8.0 | 0.00 | 0.00 | 0.00 | 86 | 1004.8 |
| 20260507121416 | 8 | 6 | 4.8 | 8.0 | 0.00 | 0.00 | 0.00 | 85 | 1004.8 |
| 20260507120915 | 8 | 60 | 4.8 | 8.0 | 0.00 | 0.00 | 0.00 | 85 | 1004.8 |
| 20260507120414 | 8 | 347 | 3.2 | 6.4 | 0.00 | 0.00 | 0.00 | 84 | 1004.7 |
| 20260507115913 | 8 | 350 | 1.6 | 1.6 | 0.00 | 0.00 | 0.00 | 86 | 1004.6 |
| 20260507115412 | 8 | 66 | 4.8 | 6.4 | 0.00 | 0.00 | 0.00 | 87 | 1004.5 |
| 20260507114911 | 8 | 21 | 3.2 | 6.4 | 0.00 | 0.00 | 0.00 | 87 | 1004.5 |
| 20260507114410 | 8 | 356 | 8.0 | 11.3 | 0.00 | 0.00 | 0.00 | 87 | 1004.4 |
| 20260507113909 | 8 | 15 | 0.0 | 0.0 | 0.00 | 0.00 | 0.00 | 88 | 1004.4 |
| 20260507113409 | 8 | 15 | 6.4 | 8.0 | 0.00 | 0.00 | 0.00 | 88 | 1004.2 |
| 20260507112907 | 8 | 348 | 6.4 | 8.0 | 0.00 | 0.00 | 0.00 | 89 | 1004.2 |
| 20260507112407 | 8 | 306 | 6.4 | 9.7 | 0.00 | 0.00 | 0.00 | 89 | 1004.1 |
| 20260507111906 | 8 | 354 | 8.0 | 9.7 | 0.00 | 0.00 | 0.00 | 88 | 1004.2 |
| 20260507111405 | 8 | 27 | 8.0 | 12.9 | 0.03 | 0.00 | 0.00 | 88 | 1004.1 |
| 20260507110904 | 8 | 330 | 6.4 | 9.7 | 0.03 | 0.00 | 0.00 | 86 | 1004.0 |
| 20260507110403 | 8 | 9 | 4.8 | 8.0 | 0.03 | 0.00 | 0.00 | 87 | 1004.0 |
| 20260507105902 | 8 | 348 | 6.4 | 11.3 | 0.00 | 0.00 | 0.00 | 86 | 1004.0 |
| 20260507105401 | 8 | 18 | 4.8 | 8.0 | 0.00 | 0.00 | 0.00 | 87 | 1004.0 |
| 20260507104900 | 8 | 18 | 3.2 | 6.4 | 0.00 | 0.00 | 0.00 | 87 | 1004.0 |
| 20260507104359 | 8 | 64 | 4.8 | 11.3 | 0.00 | 0.00 | 0.00 | 87 | 1003.9 |
| 20260507103858 | 8 | 30 | 4.8 | 6.4 | 0.00 | 0.00 | 0.00 | 87 | 1003.8 |
| 20260507103357 | 8 | 27 | 4.8 | 9.7 | 0.00 | 0.00 | 0.00 | 87 | 1003.8 |
| 20260507102856 | 8 | 10 | 6.4 | 9.7 | 0.00 | 0.00 | 0.00 | 87 | 1003.8 |
| 20260507102355 | 8 | 12 | 6.4 | 9.7 | 0.00 | 0.00 | 0.00 | 87 | 1003.8 |
| 20260507101854 | 8 | 24 | 4.8 | 11.3 | 0.00 | 0.00 | 0.00 | 86 | 1003.8 |
| 20260507101353 | 8 | 48 | 4.8 | 8.0 | 0.00 | 0.00 | 0.00 | 87 | 1003.7 |
| 20260507100852 | 8 | 64 | 4.8 | 9.7 | 0.00 | 0.00 | 0.00 | 86 | 1003.6 |
| 20260507100351 | 8 | 98 | 4.8 | 6.4 | 0.00 | 0.00 | 0.00 | 86 | 1003.6 |
| 20260507095850 | 8 | 53 | 4.8 | 6.4 | 0.00 | 0.00 | 0.00 | 88 | 1003.5 |
| 20260507094848 | 8 | 114 | 4.8 | 9.7 | 0.00 | 0.00 | 0.00 | 87 | 1003.4 |
| 20260507094347 | 8 | 18 | 4.8 | 6.4 | 0.00 | 0.00 | 0.00 | 88 | 1003.3 |
| 20260507093846 | 8 | 0 | 4.8 | 9.7 | 0.00 | 0.00 | 0.00 | 87 | 1003.4 |
| 20260507093345 | 8 | 351 | 6.4 | 11.3 | 0.03 | 0.00 | 0.00 | 88 | 1003.2 |
| 20260507092844 | 8 | 42 | 4.8 | 8.0 | 0.03 | 0.00 | 0.00 | 88 | 1003.1 |
| 20260507092343 | 8 | 324 | 4.8 | 9.7 | 0.03 | 0.00 | 0.00 | 88 | 1003.0 |
| 20260507091842 | 7 | 26 | 4.8 | 8.0 | 0.03 | 0.00 | 0.00 | 89 | 1003.0 |
| 20260507091341 | 7 | 59 | 6.4 | 9.7 | 0.03 | 0.00 | 0.00 | 89 | 1002.9 |
| 20260507090840 | 8 | 120 | 6.4 | 9.7 | 0.03 | 0.00 | 0.00 | 88 | 1002.8 |
| 20260507090339 | 8 | 335 | 6.4 | 11.3 | 0.00 | 0.00 | 0.00 | 86 | 1002.7 |
| 20260507085838 | 7 | 70 | 6.4 | 11.3 | 0.00 | 0.00 | 0.00 | 86 | 1002.6 |
| 20260507085337 | 7 | 48 | 8.0 | 14.5 | 0.00 | 0.00 | 0.00 | 86 | 1002.7 |
| 20260507084836 | 8 | 30 | 6.4 | 9.7 | 0.00 | 0.00 | 0.00 | 86 | 1002.7 |
| 20260507084335 | 8 | 346 | 4.8 | 9.7 | 0.00 | 0.00 | 0.00 | 84 | 1002.7 |
| 20260507083834 | 8 | 12 | 4.8 | 9.7 | 0.00 | 0.00 | 0.00 | 85 | 1002.6 |
| 20260507083333 | 8 | 24 | 6.4 | 9.7 | 0.00 | 0.00 | 0.00 | 86 | 1002.5 |
| 20260507082832 | 8 | 64 | 8.0 | 14.5 | 0.00 | 0.00 | 0.00 | 85 | 1002.5 |
| 20260507082331 | 8 | 342 | 6.4 | 14.5 | 0.00 | 0.00 | 0.00 | 86 | 1002.5 |
| 20260507081830 | 8 | 72 | 6.4 | 11.3 | 0.00 | 0.00 | 0.00 | 85 | 1002.3 |
| 20260507081329 | 8 | 48 | 6.4 | 9.7 | 0.00 | 0.00 | 0.00 | 84 | 1002.2 |
| 20260507080828 | 8 | 63 | 8.0 | 12.9 | 0.00 | 0.00 | 0.00 | 83 | 1002.3 |
| 20260507080327 | 7 | 324 | 6.4 | 11.3 | 0.00 | 0.00 | 0.00 | 84 | 1002.1 |
| 20260507075826 | 7 | 5 | 4.8 | 9.7 | 0.00 | 0.00 | 0.00 | 85 | 1002.2 |
| 20260507075325 | 7 | 36 | 6.4 | 12.9 | 0.00 | 0.00 | 0.00 | 85 | 1002.1 |
| 20260507074824 | 8 | 316 | 4.8 | 9.7 | 0.00 | 0.00 | 0.00 | 84 | 1002.1 |
| 20260507074323 | 7 | 138 | 6.4 | 8.0 | 0.00 | 0.00 | 0.00 | 85 | 1002.0 |
| 20260507073822 | 8 | 359 | 4.8 | 8.0 | 0.00 | 0.00 | 0.00 | 85 | 1002.1 |
| 20260507073321 | 7 | 10 | 4.8 | 8.0 | 0.00 | 0.00 | 0.00 | 84 | 1002.1 |
| 20260507072820 | 7 | 24 | 4.8 | 9.7 | 0.00 | 0.00 | 0.00 | 87 | 1002.0 |
| 20260507072319 | 7 | 69 | 6.4 | 9.7 | 0.00 | 0.00 | 0.00 | 87 | 1001.9 |
| 20260507071819 | 7 | 59 | 4.8 | 9.7 | 0.00 | 0.00 | 0.00 | 87 | 1001.9 |
| 20260507071317 | 7 | 24 | 8.0 | 14.5 | 0.00 | 0.00 | 0.00 | 87 | 1001.8 |
| 20260507070817 | 7 | 10 | 6.4 | 11.3 | 0.00 | 0.00 | 0.00 | 87 | 1001.7 |
| 20260507070315 | 7 | 42 | 6.4 | 11.3 | 0.00 | 0.00 | 0.00 | 89 | 1001.7 |
| 20260507065814 | 7 | 24 | 6.4 | 6.4 | 0.00 | 0.00 | 0.00 | 89 | 1001.6 |
| 20260507065314 | 7 | 354 | 6.4 | 9.7 | 0.00 | 0.00 | 0.00 | 89 | 1001.7 |
| 20260507064813 | 7 | 39 | 8.0 | 16.1 | 0.00 | 0.00 | 0.00 | 88 | 1001.7 |
| 20260507064312 | 7 | 354 | 6.4 | 11.3 | 0.00 | 0.00 | 0.00 | 88 | 1001.6 |
| 20260507063811 | 7 | 111 | 6.4 | 8.0 | 0.00 | 0.00 | 0.00 | 88 | 1001.5 |
| 20260507063310 | 7 | 18 | 6.4 | 14.5 | 0.00 | 0.00 | 0.00 | 90 | 1001.5 |
| 20260507062809 | 7 | 39 | 8.0 | 14.5 | 0.00 | 0.00 | 0.00 | 90 | 1001.3 |
| 20260507062308 | 7 | 18 | 8.0 | 14.5 | 0.00 | 0.00 | 0.00 | 89 | 1001.2 |
| 20260507061807 | 7 | 48 | 4.8 | 8.0 | 0.00 | 0.00 | 0.00 | 89 | 1001.1 |
| 20260507061307 | 7 | 24 | 8.0 | 14.5 | 0.00 | 0.00 | 0.00 | 89 | 1001.0 |
| 20260507060805 | 7 | 2 | 8.0 | 9.7 | 0.00 | 0.00 | 0.00 | 89 | 1001.1 |
| 20260507060304 | 7 | 354 | 8.0 | 12.9 | 0.00 | 0.00 | 0.00 | 90 | 1001.2 |
| 20260507055803 | 7 | 14 | 6.4 | 11.3 | 0.00 | 0.00 | 0.00 | 89 | 1001.2 |
| 20260507055305 | 7 | 340 | 4.8 | 9.7 | 0.00 | 0.00 | 0.00 | 90 | 1001.2 |
| 20260507054801 | 7 | 342 | 6.4 | 9.7 | 0.00 | 0.00 | 0.00 | 90 | 1001.1 |
| 20260507054301 | 7 | 4 | 6.4 | 6.4 | 0.00 | 0.00 | 0.00 | 89 | 1001.0 |
| 20260507053759 | 7 | 330 | 0.0 | 0.0 | 0.00 | 0.00 | 0.00 | 88 | 1001.0 |
| 20260507053258 | 7 | 330 | 6.4 | 6.4 | 0.00 | 0.00 | 0.00 | 88 | 1000.9 |
| 20260507052757 | 7 | 48 | 0.0 | 0.0 | 0.00 | 0.00 | 0.00 | 87 | 1000.8 |
| 20260507052257 | 7 | 48 | 6.4 | 6.4 | 0.00 | 0.00 | 0.00 | 87 | 1000.7 |
| 20260507051756 | 7 | 341 | 8.0 | 9.7 | 0.00 | 0.00 | 0.00 | 88 | 1000.8 |
| 20260507051255 | 7 | 48 | 0.0 | 0.0 | 0.00 | 0.00 | 0.00 | 88 | 1000.7 |
| 20260507050754 | 7 | 48 | 4.8 | 8.0 | 0.00 | 0.00 | 0.00 | 88 | 1000.6 |
| 20260507050253 | 7 | 335 | 4.8 | 9.7 | 0.00 | 0.00 | 0.00 | 89 | 1000.6 |
| 20260507045752 | 7 | 353 | 6.4 | 9.7 | 0.00 | 0.00 | 0.00 | 89 | 1000.5 |
| 20260507045252 | 7 | 48 | 6.4 | 9.7 | 0.00 | 0.00 | 0.00 | 90 | 1000.4 |
| 20260507044750 | 7 | 43 | 6.4 | 9.7 | 0.00 | 0.00 | 0.00 | 90 | 1000.5 |
| 20260507044249 | 7 | 92 | 4.8 | 9.7 | 0.00 | 0.00 | 0.00 | 90 | 1000.4 |
| 20260507043748 | 7 | 8 | 6.4 | 11.3 | 0.00 | 0.00 | 0.00 | 90 | 1000.4 |
| 20260507043247 | 7 | 42 | 6.4 | 14.5 | 0.00 | 0.00 | 0.00 | 90 | 1000.4 |
| 20260507042746 | 7 | 359 | 6.4 | 12.9 | 0.00 | 0.00 | 0.00 | 90 | 1000.5 |
| 20260507042245 | 7 | 328 | 8.0 | 8.0 | 0.00 | 0.00 | 0.00 | 90 | 1000.4 |
| 20260507041744 | 7 | 91 | 6.4 | 9.7 | 0.00 | 0.00 | 0.00 | 90 | 1000.4 |
| 20260507041243 | 7 | 348 | 6.4 | 9.7 | 0.00 | 0.00 | 0.00 | 90 | 1000.5 |
| 20260507040742 | 7 | 348 | 4.8 | 9.7 | 0.00 | 0.00 | 0.00 | 90 | 1000.3 |
| 20260507040241 | 7 | 352 | 8.0 | 14.5 | 0.00 | 0.00 | 0.00 | 90 | 1000.2 |
| 20260507035741 | 7 | 4 | 8.0 | 14.5 | 0.00 | 0.00 | 0.00 | 90 | 1000.1 |
| 20260507035240 | 7 | 333 | 4.8 | 8.0 | 0.00 | 0.00 | 0.00 | 89 | 1000.1 |
| 20260507034739 | 7 | 348 | 4.8 | 6.4 | 0.00 | 0.00 | 0.00 | 90 | 1000.0 |
| 20260507034238 | 7 | 24 | 6.4 | 6.4 | 0.00 | 0.00 | 0.00 | 90 | 1000.0 |
| 20260507033737 | 7 | 6 | 4.8 | 9.7 | 0.00 | 0.00 | 0.00 | 90 | 999.9 |
| 20260507033235 | 7 | 329 | 6.4 | 9.7 | 0.00 | 0.00 | 0.00 | 91 | 999.9 |
| 20260507032736 | 7 | 318 | 4.8 | 6.4 | 0.00 | 0.00 | 0.00 | 91 | 999.8 |
| 20260507032233 | 7 | 330 | 6.4 | 12.9 | 0.00 | 0.00 | 0.00 | 91 | 999.6 |
| 20260507031732 | 7 | 340 | 8.0 | 16.1 | 0.00 | 0.00 | 0.00 | 91 | 999.6 |
| 20260507031231 | 7 | 24 | 9.7 | 14.5 | 0.00 | 0.00 | 0.00 | 91 | 999.6 |
| 20260507030730 | 7 | 334 | 6.4 | 9.7 | 0.00 | 0.00 | 0.00 | 90 | 999.6 |
| 20260507030229 | 7 | 57 | 8.0 | 11.3 | 0.00 | 0.00 | 0.00 | 91 | 999.6 |
| 20260507025728 | 7 | 333 | 8.0 | 14.5 | 0.00 | 0.00 | 0.00 | 91 | 999.5 |
| 20260507025227 | 7 | 358 | 8.0 | 12.9 | 0.00 | 0.00 | 0.00 | 91 | 999.6 |
| 20260507024726 | 7 | 10 | 8.0 | 9.7 | 0.00 | 0.00 | 0.00 | 91 | 999.6 |
| 20260507024225 | 7 | 340 | 8.0 | 14.5 | 0.00 | 0.00 | 0.00 | 91 | 999.5 |